Regional Weather Roundup
Issued by NWS

Home | Current Version | Previous Version | Graphics & Text | Print | Product List | Glossary On
Versions: 1 2 3 4 5 6 7 8 9 10 11 12 13 14 15 16 17 18 19 20 21 22 23 24 25 26 27 28 29 30 31 32 33 34 35 36 37 38 39 40 41 42 43 44 45 46 47 48 49 50
000
ASUS43 KLOT 210406
RWRIL

ILLINOIS REGIONAL WEATHER ROUNDUP
NATIONAL WEATHER SERVICE CHICAGO/ROMEOVILLE IL
1100 PM CDT SUN APR 20 2014

NOTE: "FAIR" INDICATES FEW OR NO CLOUDS BELOW 12,000 FEET WITH NO
SIGNIFICANT WEATHER AND/OR OBSTRUCTIONS TO VISIBILITY.

* THESE STATIONS ARE NOT UNDER NWS QUALITY CONTROL. THEY ALSO MAY NOT
  REPORT WEATHER SUCH AS PRECIPITATION OR FOG.

ILZ001-002-007-009-015-016-024-210500-
NORTHWEST ILLINOIS

CITY           SKY/WX    TMP DP  RH WIND       PRES   REMARKS
MOLINE         CLOUDY    68  46  45 S6        29.98S
STERLING*      CLOUDY    68  43  40 S6        30.00R
SAVANNA*       CLOUDY    66  46  48 S3        29.98F
$$

ILZ003-004-008-010-011-017-018-210500-
NORTH CENTRAL ILLINOIS

CITY           SKY/WX    TMP DP  RH WIND       PRES   REMARKS
ROCKFORD       CLOUDY    63  42  46 S8        30.01R
FREEPORT*      CLOUDY    62  47  57 S8        30.01S
ROCHELLE*      MOCLDY    61  43  51 S9        30.01S
DE KALB*       MOCLDY    58  42  56 S10       30.03S
PERU*          CLOUDY    65  43  44 S9        30.02F
$$

ILZ005-006-012>014-019>023-210500-
NORTHEAST ILLINOIS

CITY           SKY/WX    TMP DP  RH WIND       PRES   REMARKS
CHICAGO-OHARE  MOCLDY    62  39  42 S8        30.01F
CHICAGO-MIDWAY MOCLDY    68  39  34 S12       30.03F
AURORA         MOCLDY    61  42  49 S7        30.02F
LANSING*       CLEAR     61  37  42 S7        30.04F
JOLIET*        PTCLDY    64  41  42 S6        30.04S
WAUKEGAN       CLEAR     51  39  63 S5        30.00F
DUPAGE AIRPORT PTCLDY    60  42  51 S7        30.01F
KANKAKEE*      PTCLDY    61  43  50 S9        30.06F
WHEELING       CLEAR     64  40  41 S9        30.02F
MORRIS*        MOCLDY    61  38  42 S7        30.02F
ROMEOVILLE*    PTCLDY    61  41  48 S9        30.03F
NORTHERLY ISL    N/A     66  36  32 S12         N/A
$$

LMZ740>746-210500-
SOUTHERN LAKE MICHIGAN

STATION/POSITION SKY/WX   TEMP    WIND        PRES    VSBY  WAVE
                          AIR SEA DIR/SP/G                  HT/PER
                          (F)     (DEG/KT/KT) (MB)    (MI)  (FT/S)
WAUKEGAN HARBOR            50     190/  7/  9 1017.6S
HARRISON CRIB              56     180/ 14/ 17   N/A
BURNHAM HARBOR             67     170/  6/ 11   N/A
CALUMET HARBOR             67     150/  7/ 10 1017.7F
MICHIGAN CITY              67     140/ 10/ 13   N/A
$$

ILZ025>027-034>036-040-047-049-050-058-095>099-210500-
WEST-CENTRAL ILLINOIS

CITY           SKY/WX    TMP DP  RH WIND       PRES   REMARKS
QUINCY         PTCLDY    65  45  48 SE9       30.01F
GALESBURG*     CLOUDY    64  46  51 S6        30.01S
MACOMB*        MOCLDY    62  43  49 S7        30.04S
JACKSONVILLE*  PTCLDY    67  44  43 SE10      30.04F
PITTSFIELD*    PTCLDY    66  45  45 S7        30.03F
$$

ILZ028>032-037-038-041>044-048-051>054-059>061-210500-
CENTRAL ILLINOIS

CITY           SKY/WX    TMP DP  RH WIND       PRES   REMARKS
PONTIAC        CLOUDY    63  45  51 S10       30.04F
BLOOMINGTON    PTCLDY    56  41  57 S7        30.06F
DECATUR        PTCLDY    59  44  57 S6        30.06F
PEORIA         PTCLDY    67  42  40 S9        30.03F
LACON*         MOCLDY    65  43  44 S7        30.02F
LINCOLN*       PTCLDY    64  43  46 S5        30.03F
SPRINGFIELD    PTCLDY    67  42  40 S10       30.05S
TAYLORVILLE    PTCLDY    61  43  51 S8        30.06S
$$

ILZ033-039-045-046-055>057-062-063-210500-
EAST-CENTRAL ILLINOIS

CITY           SKY/WX    TMP DP  RH WIND       PRES   REMARKS
CHAMPAIGN      PTCLDY    60  43  53 SE9       30.07F
RANTOUL*       MOCLDY    59  42  54 CALM      30.08F
MATTOON        PTCLDY    61  43  51 S6        30.07F
PARIS*         PTCLDY    55  45  68 SE3       30.09F
$$

ILZ079-100>102-210500-
SOUTHWEST ILLINOIS

CITY           SKY/WX    TMP DP  RH WIND       PRES   REMARKS
ALTON          MOCLDY    62  45  53 SE7       30.05F
BELLEVILLE     MOCLDY    65  47  53 SE3       30.05F
CAHOKIA*       CLOUDY    66  47  50 SE6       30.05F
SPARTA*        CLOUDY    64  45  48 SE6       30.08S
$$

ILZ064>066-069>071-074>076-080>082-084>086-088>090-092>094-210500-
SOUTH-CENTRAL ILLINOIS

CITY           SKY/WX    TMP DP  RH WIND       PRES   REMARKS
CARBONDALE     PTCLDY    61  47  59 SE6       30.08F
CAIRO*         MOCLDY    62  52  70 CALM      30.09S
MARION         PTCLDY    64  45  48 CALM      30.09F
MT. VERNON     MOCLDY    55  43  62 CALM      30.09F
CENTRALIA*       N/A     62  45  54 CALM      30.08F
SALEM*         PTCLDY    66  46  47 SE5       30.09F
METROPOLIS*    PTCLDY    57  48  71 CALM      30.09F
$$

ILZ067-068-072-073-078-083-087-091-210500-
SOUTHEAST ILLINOIS

CITY           SKY/WX    TMP DP  RH WIND       PRES   REMARKS
FAIRFIELD*     PTCLDY    61  48  63 CALM      30.09F
HARRISBURG*    PTCLDY    58  53  82 CALM      30.10F
ROBINSON*      PTCLDY    55  49  78 SE3       30.09F
CARMI*         PTCLDY    59  51  75 S3        30.09F
$$

ABBREVIATIONS USED IN REMARKS
   TC - TEMPERATURE IN CELSIUS
  WCI - WIND CHILL INDEX
   HX - HEAT INDEX
  VSB - VISIBILITY
$$




USA.gov is the U.S. government's official web portal to all federal, state and local government web resources and services.